Regional Weather Roundup
Issued by NWS

Home | Current Version | Previous Version | Text Only | Print | Product List | Glossary On
Versions: 1 2 3 4 5 6 7 8 9 10 11 12 13 14 15 16 17 18 19 20 21 22 23 24 25 26 27 28 29 30 31 32 33 34 35 36 37 38 39 40 41 42 43 44 45 46 47 48 49 50
000
ASUS45 KPSR 230610
RWRAZ

ARIZONA HOURLY REGIONAL WEATHER ROUNDUP
NATIONAL WEATHER SERVICE PHOENIX AZ
1100 PM MST WED FEB 22 2017

NOTE: FAIR INDICATES FEW OR NO CLOUDS BELOW 12,000 FEET WITH NO
SIGNIFICANT WEATHER AND/OR OBSTRUCTIONS TO VISIBILITY.

AZZ001>003-036-230700-
NORTHWEST ARIZONA

CITY           SKY/WX    TMP DP  RH WIND       PRES   REMARKS
BULLHEAD CITY  CLEAR     57  28  33 SW10      29.88R
KINGMAN        CLEAR     43  12  28 SW10      29.86F
6HR MIN TEMP:  43; 6HR MAX TEMP:  60;

$$

AZZ004>008-015-016-018-230700-
NORTH CENTRAL ARIZONA

CITY           SKY/WX    TMP DP  RH WIND       PRES   REMARKS
GRAND CANYON   CLOUDY    35  24  64 SW14G28   29.78F WCI  26
6HR MIN TEMP:  35; 6HR MAX TEMP:  49;

WILLIAMS       CLOUDY    37  32  81 SW9G17    29.81F WCI  31
PRESCOTT       CLEAR     45  36  70 W18G26    29.83S
6HR MIN TEMP:  45; 6HR MAX TEMP:  53;

FLAGSTAFF      CLOUDY    38  31  76 SW18      29.80F WCI  28
6HR MIN TEMP:  38; 6HR MAX TEMP:  44;

PAYSON         CLEAR     48  23  37 VRB7G14   29.86F
PAGE           PTCLDY    44  26  49 W16G33    29.68R
6HR MIN TEMP:  44; 6HR MAX TEMP:  64;

$$

AZZ009>014-017-230700-
NORTHEAST ARIZONA

CITY           SKY/WX    TMP DP  RH WIND       PRES   REMARKS
WINSLOW        CLEAR     51  25  36 SW28G35   29.74F
6HR MIN TEMP:  51; 6HR MAX TEMP:  61;

SAINT JOHNS    PTCLDY    53  25  33 SW22G38   29.80F
6HR MIN TEMP:  53; 6HR MAX TEMP:  61;

WINDOW ROCK    PTCLDY    45  20  36 SW17G23   29.80F
6HR MIN TEMP:  45; 6HR MAX TEMP:  53;

SHOW LOW       PTCLDY    45  27  49 SW22G29   29.85F
$$

AZZ023-230700-
GREATER PHOENIX AREA

CITY           SKY/WX    TMP DP  RH WIND       PRES   REMARKS
PHOENIX        PTCLDY    65  43  44 W7        29.76F
6HR MIN TEMP:  63; 6HR MAX TEMP:  76;

BUCKEYE        CLEAR     59  41  51 W16G22    29.81R
LUKE AFB       CLEAR     63  36  37 S5        29.77R
6HR MIN TEMP:  61; 6HR MAX TEMP:  74; 6HR PCP: TRACE;

DEER VALLEY    CLEAR     59  36  42 SW6       29.76F
6HR MIN TEMP:  59; 6HR MAX TEMP:  72;

SCOTTSDALE     CLEAR     59  46  62 SW5       29.78F
6HR MIN TEMP:  59; 6HR MAX TEMP:  73;

MESA-GATEWAY   PTCLDY    64  45  48 MISG      29.79S
$$

AZZ027-028-230700-
SOUTHWEST MARICOPA COUNTY AND PINAL COUNTY

CITY           SKY/WX    TMP DP  RH WIND       PRES   REMARKS
CASA GRANDE    NOT AVBL
GILA BEND      CLEAR     62  33  33 SW17      29.81R
6HR MIN TEMP:  62; 6HR MAX TEMP:  78;

$$

AZZ503-504-507>509-230700-
SOUTHEAST ARIZONA

CITY           SKY/WX    TMP DP  RH WIND       PRES   REMARKS
TUCSON         CLOUDY    64  40  41 SW5       29.86F
6HR MIN TEMP:  64; 6HR MAX TEMP:  79;

DAVIS-MONTHAN  MOCLDY    63  41  45 SW6       29.85F
6HR MIN TEMP:  63; 6HR MAX TEMP:  77;

NOGALES        MOCLDY    55  42  61 CALM      29.93F
6HR MIN TEMP:  55; 6HR MAX TEMP:  76;

SIERRA VISTA   PTCLDY    60  37  41 SW13      29.94S
6HR MIN TEMP:  54; 6HR MAX TEMP:  73;

DOUGLAS        CLEAR     54  35  48 NW7       29.92F
6HR MIN TEMP:  50; 6HR MAX TEMP:  79;

SAFFORD        MOCLDY    56  41  57 W6        29.82F
6HR MIN TEMP:  56; 6HR MAX TEMP:  76; 6HR PCP: TRACE;

$$

AZZ020-021-025-026-031-230700-
SOUTHWEST ARIZONA

CITY           SKY/WX    TMP DP  RH WIND       PRES   REMARKS
YUMA           CLEAR     58  32  37 NW13G23   29.92R
6HR MIN TEMP:  58; 6HR MAX TEMP:  76;

$$

CAZ031-033-041-043-047-048-061-230700-
SOUTHERN CALIFORNIA

CITY           SKY/WX    TMP DP  RH WIND       PRES   REMARKS
DOWNTOWN L.A.  CLEAR     57  33  40 N6        30.05R
6HR MIN TEMP:  56; 6HR MAX TEMP:  65;

L.A. AIRPORT   CLEAR     56  34  43 NW7G18    30.07R
6HR MIN TEMP:  56; 6HR MAX TEMP:  61;

SAN DIEGO      MOCLDY    57  45  64 CALM      30.09F
6HR MIN TEMP:  57; 6HR MAX TEMP:  62;

BURBANK        CLEAR     53  29  39 N16G22    30.05R
6HR MIN TEMP:  53; 6HR MAX TEMP:  61;

ONTARIO        PTCLDY    50  45  83 CALM      30.04R
6HR MIN TEMP:  49; 6HR MAX TEMP:  59; 6HR PCP: TRACE;

RIVERSIDE      CLEAR     49  43  80 SW3       30.04S
6HR MIN TEMP:  49; 6HR MAX TEMP:  59;

PALM SPRINGS   CLEAR     61  37  41 N12       29.90F
6HR MIN TEMP:  59; 6HR MAX TEMP:  72;

EL CENTRO NAS  PTCLDY    57  32  38 W25       29.96S
6HR MIN TEMP:  56; 6HR MAX TEMP:  73;

BLYTHE         CLEAR     61  34  36 NW14      29.89R
6HR MIN TEMP:  60; 6HR MAX TEMP:  76;

NEEDLES        CLEAR     57  26  30 W20       29.90R
6HR MIN TEMP:  57; 6HR MAX TEMP:  73;

$$

NVZ020-UTZ003-230700-
SOUTHERN NEVADA-UTAH

CITY           SKY/WX    TMP DP  RH WIND       PRES   REMARKS
LAS VEGAS      CLOUDY    51  30  44 S6        29.84R
6HR MIN TEMP:  48; 6HR MAX TEMP:  64;

SALT LAKE CITY LGT SNOW  31  29  92 S3        29.78F FOG
6HR MIN TEMP:  31; 6HR MAX TEMP:  38; 6HR PCP:  0.06;

$$

NMZ009-TXZ055-230700-
NEW MEXICO-WEST TEXAS

CITY           SKY/WX    TMP DP  RH WIND       PRES   REMARKS
ALBUQUERQUE    MOCLDY    49  29  46 SE7       29.85F
6HR MIN TEMP:  49; 6HR MAX TEMP:  65;

EL PASO        CLEAR     62  27  26 SW8       29.85F
6HR MIN TEMP:  62; 6HR MAX TEMP:  78;

$$


........................KEY........................
SKY/WX - SKY CONDITION/WEATHER
TMP    - TEMPERATURE IN FAHRENHEIT
DP     - DEW POINT IN FAHRENHEIT
RH     - RELATIVE HUMIDITY IN PERCENT
WIND   - DIRECTION AND SPEED IN MILES PER HOUR (MPH)
VRB    - VARIABLE WIND DIRECTION
PRES   - MEAN SEA LEVEL PRESSURE IN INCHES OF MERCURY
         F - FALLING PRESSURE   R - RISING PRESSURE
         S - STEADY PRESSURE
VSB    - VISIBILITY IN MILES
HX     - HEAT INDEX IN FAHRENHEIT
WCI    - WIND CHILL INDEX IN FAHRENHEIT
TC     - TEMPERATURE IN CELSIUS WHICH IS ALSO KNOWN AS
         TEMPERATURE IN CENTIGRADE
AFB    - AIR FORCE BASE
         LUKE AFB IS LUKE AIR FORCE BASE
         DAVIS-MONTHAN IS DAVIS-MONTHAN AIR FORCE BASE
NAS    - NAVAL AIR STATION
         EL CENTRO NAS IS EL CENTRO NAVAL AIR STATION
N/A    - NOT AVAILABLE




USA.gov is the U.S. government's official web portal to all federal, state and local government web resources and services.